[[{"header":{"parameterUnit":"m.s-1","parameterCategory":1,"la1":30.2991,"la2":30.254,"lo1":-89.0895,"lo2":-89.0444,"dy":0.0017,"dx":0.0017,"nx":28,"ny":28,"refTime":"2024-04-18T09:00:00:Z","depth":0,"parameterNumber":2,"parameterNumberName":"U-component_of_WINDS"},"data":[0,0,0,0,0,0,0,0,0,0,0,0,0,0,0,0,0,0,0,0,0,0,0,0,0,0,0,0,0,0,0,0,0,0,0,0,0,0,0,0,0,0,0,0,0,0,0,0,0,0,0,0,0,0,0,0,0,0,-3.6039,-3.6037,0,-3.5833,-3.583,-3.5828,-3.5699,-3.5698,-3.5698,-3.5697,-3.547,-3.5464,-3.5459,0,0,0,0,0,0,0,0,0,0,0,0,0,-3.6309,-3.6305,-3.6039,-3.6037,-3.6034,-3.5833,-3.583,-3.5827,-3.5699,-3.5698,-3.5698,-3.5697,-3.5471,-3.5465,-3.5458,0,0,0,0,0,0,0,0,0,0,0,0,0,-3.6156,-3.6304,-3.604,-3.5946,-3.5936,-3.5834,-3.583,-3.5826,-3.5699,-3.5698,-3.5697,-3.5696,-3.5473,-3.5466,-3.5457,-3.5427,0,0,-3.5432,-3.5429,0,0,0,0,0,0,0,0,-3.6165,-3.6146,-3.5963,-3.5953,-3.5941,-3.5791,-3.5842,-3.5692,-3.57,-3.5789,-3.5697,-3.5696,-3.5576,-3.556,-3.5522,-3.5416,-3.5406,-3.5432,-3.5427,-3.5423,-3.5421,0,0,0,0,0,0,0,-3.6176,-3.6154,-3.5957,-3.596,-3.5947,-3.591,-3.5888,-3.5813,-3.569,-3.5781,-3.5771,-3.5749,-3.557,-3.5531,-3.5516,-3.5403,-3.5432,-3.5425,-3.542,-3.5417,-3.5261,-3.5262,0,0,0,0,0,0,-3.6203,-3.6164,-3.5963,-3.5951,-3.6053,-3.5906,-3.5881,-3.584,-3.5691,-3.5667,-3.575,-3.5744,-3.5545,-3.5526,-3.5508,-3.5462,-3.5423,-3.5416,-3.5411,-3.526,-3.5261,-3.5262,0,0,0,0,0,0,-3.621,-3.6187,-3.5972,-3.6055,-3.6025,-3.5903,-3.5858,-3.5836,-3.5797,-3.5668,-3.5644,-3.5734,-3.5543,-3.5519,-3.5449,-3.5452,-3.5412,-3.5405,-3.5259,-3.5261,-3.5262,-3.537,0,0,0,0,0,0,-3.6218,-3.619,-3.618,-3.6056,-3.6021,-3.5921,-3.5858,-3.5833,-3.5785,-3.5775,-3.5646,-3.5623,-3.5541,-3.5462,-3.5441,-3.544,-3.5398,-3.5258,-3.526,-3.5261,-3.5366,-3.5375,-3.5383,0,0,0,0,0,-3.6228,-3.6215,-3.618,-3.6156,-3.6007,-3.5922,-3.5901,-3.5811,-3.5786,-3.5773,-3.569,-3.5627,-3.5456,-3.5456,-3.5431,-3.5428,-3.5258,-3.5259,-3.5261,-3.5362,-3.5373,-3.5383,0,0,0,0,0,0,-3.6336,-3.6197,-3.6156,-3.6104,-3.6027,-3.59,-3.5881,-3.5826,-3.575,-3.5743,-3.563,-3.5601,-3.5543,-3.5478,-3.548,-3.539,-3.5349,-3.5346,-3.5435,-3.5444,-3.5453,-3.5468,-3.5391,0,0,0,0,0,-3.6355,-3.6302,-3.6181,-3.6146,-3.611,-3.6003,-3.5962,-3.5901,-3.5813,-3.5778,-3.569,-3.5604,-3.553,-3.5484,-3.5409,-3.5357,-3.5326,-3.5342,-3.5351,-3.5359,-3.5356,-3.5324,-3.5329,-3.5268,-3.5268,-3.5268,0,0,-3.639,-3.6308,-3.628,-3.6166,-3.6099,-3.6043,-3.5976,-3.5918,-3.5874,-3.5767,-3.5698,-3.5631,-3.5526,-3.5466,-3.5434,-3.541,-3.5367,-3.5361,-3.5368,-3.5361,-3.5326,-3.5332,-3.5337,-3.5269,-3.5269,-3.5268,0,0,-3.6427,-3.6361,-3.6325,-3.6261,-3.6162,-3.6091,-3.6084,-3.5966,-3.5919,-3.5849,-3.5768,-3.5712,-3.5588,-3.5518,-3.5466,-3.5481,-3.5419,-3.5459,-3.5502,-3.5472,-3.5477,-3.548,-3.5484,-3.5487,-3.5458,-3.5458,-3.5458,0,-3.6482,-3.64,-3.6312,-3.6261,-3.6212,-3.612,-3.6081,-3.6021,-3.59,-3.5867,-3.5843,-3.5688,-3.5611,-3.5533,-3.5538,-3.5499,-3.5483,-3.5472,-3.5484,-3.5487,-3.5489,-3.5491,-3.5493,-3.5463,-3.5463,-3.5462,-3.5462,0,-3.6472,-3.6416,-3.6398,-3.6292,-3.6241,-3.6196,-3.6097,-3.6056,-3.6,-3.5931,-3.5859,-3.5765,-3.5671,-3.5648,-3.5589,-3.5561,-3.5549,-3.5507,-3.5462,-3.5502,-3.5502,-3.5502,-3.5471,-3.5469,-3.5468,-3.5466,0,0,-3.6566,-3.6417,-3.6411,-3.6362,-3.6249,-3.6201,-3.6151,-3.6065,-3.6031,-3.5951,-3.5904,-3.5805,-3.5766,-3.5707,-3.564,-3.5614,-3.5631,-3.5574,-3.5569,-3.5586,-3.5592,-3.5624,-3.5627,-3.5591,-3.5591,-3.5591,-3.5601,0,-3.6585,-3.6497,-3.6418,-3.6357,-3.6303,-3.6216,-3.6172,-3.6096,-3.6031,-3.5972,-3.5897,-3.5829,-3.5783,-3.5747,-3.5718,-3.5636,-3.563,-3.5634,-3.5542,-3.554,-3.557,-3.5627,-3.5659,-3.5673,-3.56,-3.56,-3.56,0,-3.6594,-3.6526,-3.6461,-3.6356,-3.6329,-3.6293,-3.6207,-3.6154,-3.6064,-3.6019,-3.5957,-3.5888,-3.5828,-3.5793,-3.5707,-3.5712,-3.5669,-3.5624,-3.5622,-3.5607,-3.5571,-3.5612,-3.5675,-3.5677,-3.56,-3.56,-3.56,0,-3.6669,-3.656,-3.6507,-3.6468,-3.6343,-3.6319,-3.6265,-3.6176,-3.6129,-3.6054,-3.6022,-3.5938,-3.5892,-3.5827,-3.5737,-3.572,-3.5659,-3.5617,-3.5616,-3.5619,-3.5604,-3.5606,-3.566,-3.5582,-3.5582,-3.5582,-3.5582,0,-3.6696,-3.6659,-3.654,-3.6507,-3.6463,-3.6372,-3.6329,-3.6266,-3.6188,-3.6139,-3.6057,-3.6012,-3.5897,-3.5836,-3.5765,-3.5704,-3.5683,-3.5642,-3.5623,-3.5648,-3.5653,-3.5617,-3.5612,-3.5582,-3.5582,-3.5582,-3.5582,0,-3.677,-3.6689,-3.6626,-3.6516,-3.6487,-3.646,-3.6362,-3.6325,-3.6258,-3.6197,-3.6177,-3.6069,-3.5994,-3.5899,-3.5792,-3.5744,-3.569,-3.5662,-3.5722,-3.571,-3.5715,-3.5715,-3.5744,-3.5743,-3.567,-3.567,-3.5671,0,-3.6792,-3.6763,-3.6652,-3.6617,-3.6567,-3.651,-3.6464,-3.6373,-3.6327,-3.6226,-3.62,-3.6121,-3.6052,-3.5936,-3.5845,-3.5762,-3.573,-3.5747,-3.5717,-3.5744,-3.5728,-3.5731,-3.5726,-3.5753,-3.5754,-3.5756,-3.5756,0,-3.684,-3.6802,-3.6742,-3.6669,-3.6619,-3.6555,-3.6487,-3.6461,-3.6355,-3.6307,-3.6234,-3.6181,-3.6076,-3.5996,-3.5903,-3.5842,-3.578,-3.5768,-3.5763,-3.5786,-3.5822,-3.5802,-3.574,-3.5766,-3.5765,-3.5764,-3.5764,-3.5763,-3.6886,-3.6857,-3.6776,-3.6712,-3.6653,-3.6592,-3.6553,-3.6484,-3.6423,-3.6333,-3.6282,-3.621,-3.6121,-3.5991,-3.5933,-3.5871,-3.5848,-3.5841,-3.5839,-3.5838,-3.5846,-3.5836,-3.5854,-3.5854,-3.5853,-3.5853,-3.5853,0,-3.6928,-3.6874,-3.6816,-3.6727,-3.6677,-3.6631,-3.6554,-3.6513,-3.6452,-3.6378,-3.6314,-3.6229,-3.6152,-3.6058,-3.5974,-3.5943,-3.5913,-3.5924,-3.5924,-3.591,-3.5872,-3.5884,-3.595,-3.595,-3.595,-3.595,-3.595,-3.595,-3.6944,-3.6893,-3.6846,-3.6763,-3.6706,-3.664,-3.66,-3.6542,-3.6483,-3.6393,-3.6332,-3.6273,-3.6189,-3.61,-3.6027,-3.6001,-3.5972,-3.5992,-3.5957,-3.5922,-3.5913,-3.5905,-3.5916,-3.5987,-3.5987,-3.6,-3.6,-3.6]},{"header":{"parameterUnit":"m.s-1","parameterCategory":1,"la1":30.2991,"la2":30.254,"lo1":-89.0895,"lo2":-89.0444,"dy":0.0017,"dx":0.0017,"nx":28,"ny":28,"refTime":"2024-04-18T09:00:00:Z","depth":0,"parameterNumber":3,"parameterNumberName":"V-component_of_WINDS"},"data":[0,0,0,0,0,0,0,0,0,0,0,0,0,0,0,0,0,0,0,0,0,0,0,0,0,0,0,0,0,0,0,0,0,0,0,0,0,0,0,0,0,0,0,0,0,0,0,0,0,0,0,0,0,0,0,0,0,0,3.1954,3.1954,0,3.1967,3.1967,3.1968,3.1939,3.1938,3.1937,3.1936,3.1951,3.1953,3.1954,0,0,0,0,0,0,0,0,0,0,0,0,0,3.1906,3.1907,3.1954,3.1954,3.1954,3.1967,3.1967,3.1968,3.1939,3.1938,3.1937,3.1936,3.1951,3.1952,3.1954,0,0,0,0,0,0,0,0,0,0,0,0,0,3.1924,3.1908,3.1954,3.1941,3.1941,3.1967,3.1967,3.1968,3.1939,3.1938,3.1936,3.1935,3.195,3.1952,3.1954,3.1994,0,0,3.196,3.1961,0,0,0,0,0,0,0,0,3.1923,3.1926,3.1943,3.1942,3.1941,3.195,3.1956,3.1976,3.194,3.194,3.1936,3.1934,3.1952,3.1954,3.1959,3.1995,3.1995,3.196,3.1961,3.1962,3.1963,0,0,0,0,0,0,0,3.1922,3.1925,3.1959,3.1943,3.1942,3.1936,3.1937,3.196,3.1954,3.194,3.1938,3.1939,3.1951,3.1958,3.1959,3.1995,3.196,3.1962,3.1963,3.1964,3.2065,3.2066,0,0,0,0,0,0,3.1922,3.1924,3.1959,3.196,3.1929,3.1938,3.1939,3.1949,3.1953,3.1953,3.1941,3.1938,3.1955,3.1957,3.196,3.2007,3.1962,3.1964,3.1965,3.2063,3.2065,3.2067,0,0,0,0,0,0,3.1921,3.1925,3.1958,3.1941,3.1945,3.194,3.1951,3.195,3.1956,3.1954,3.1953,3.1948,3.1954,3.1957,3.1986,3.2007,3.1965,3.1966,3.2062,3.2064,3.2066,3.2101,0,0,0,0,0,0,3.192,3.1925,3.1939,3.1942,3.1946,3.1983,3.1953,3.1951,3.1959,3.1956,3.1961,3.196,3.1953,3.1983,3.1988,3.2009,3.1968,3.206,3.2063,3.2065,3.2098,3.2104,3.211,0,0,0,0,0,3.1918,3.1949,3.194,3.1945,3.1964,3.1984,3.1987,3.1978,3.1961,3.1976,3.1975,3.196,3.2004,3.1986,3.1991,3.2013,3.2058,3.2062,3.2065,3.2095,3.2103,3.2109,0,0,0,0,0,0,3.1949,3.1949,3.1939,3.1972,3.1978,3.1979,3.1997,3.1986,3.1998,3.1994,3.1983,3.1985,3.2015,3.2017,3.1997,3.2052,3.2028,3.2033,3.205,3.2057,3.2063,3.2061,3.197,0,0,0,0,0,3.196,3.1976,3.1975,3.2004,3.2007,3.2002,3.2011,3.2003,3.201,3.2013,3.2014,3.2021,3.2037,3.2047,3.2061,3.2099,3.2099,3.2116,3.2122,3.2127,3.2131,3.2151,3.2159,3.2078,3.2078,3.2078,0,0,3.1982,3.1984,3.1994,3.201,3.2014,3.2032,3.2005,3.2024,3.2037,3.2016,3.2042,3.2044,3.2052,3.2085,3.2099,3.2087,3.2154,3.2132,3.2135,3.2137,3.2156,3.2163,3.217,3.2081,3.208,3.208,0,0,3.2031,3.2034,3.2058,3.2063,3.2069,3.2066,3.2072,3.2075,3.2075,3.2102,3.2086,3.2103,3.213,3.2136,3.2142,3.2196,3.2183,3.2201,3.2231,3.2251,3.2257,3.2263,3.2281,3.2288,3.2205,3.2205,3.2205,0,3.2057,3.2082,3.2072,3.2093,3.21,3.2082,3.2107,3.2112,3.2124,3.213,3.2116,3.215,3.2154,3.2189,3.2202,3.2208,3.2215,3.2199,3.2257,3.2262,3.2267,3.2285,3.2292,3.2207,3.2207,3.2207,3.2206,0,3.2114,3.2132,3.2151,3.2162,3.2172,3.2195,3.2189,3.2201,3.2193,3.2191,3.222,3.2224,3.2239,3.2247,3.224,3.2281,3.2273,3.2259,3.2234,3.2277,3.2294,3.2301,3.221,3.2209,3.2209,3.2208,0,0,3.2181,3.2187,3.2194,3.2199,3.2206,3.222,3.2243,3.2257,3.2267,3.2277,3.2296,3.232,3.2307,3.2314,3.2308,3.2326,3.2368,3.2309,3.2309,3.2319,3.2413,3.2423,3.2431,3.236,3.2361,3.2362,3.2412,0,3.2229,3.2267,3.2259,3.2297,3.2313,3.2297,3.2317,3.2324,3.2324,3.2338,3.2338,3.2355,3.2337,3.2342,3.2358,3.2359,3.2386,3.2355,3.2377,3.2378,3.2375,3.244,3.2451,3.2498,3.2419,3.242,3.2421,0,3.2289,3.23,3.2339,3.2344,3.2351,3.2369,3.2382,3.2396,3.2404,3.2403,3.2412,3.2403,3.2427,3.2403,3.2436,3.2415,3.2424,3.2426,3.2427,3.2428,3.2401,3.2442,3.2513,3.252,3.2431,3.243,3.2429,0,3.2334,3.2358,3.2385,3.239,3.2396,3.2409,3.2413,3.242,3.2429,3.2441,3.2447,3.2462,3.247,3.2483,3.2478,3.2461,3.2512,3.2488,3.2511,3.2511,3.2521,3.2521,3.2594,3.2529,3.2529,3.2529,3.2529,0,3.2387,3.2411,3.2405,3.2421,3.2448,3.244,3.2468,3.247,3.2476,3.2493,3.2481,3.2497,3.2491,3.2507,3.2504,3.2531,3.2535,3.2535,3.2534,3.2536,3.2536,3.254,3.2537,3.2531,3.253,3.253,3.253,0,3.244,3.2437,3.2465,3.2469,3.2471,3.2491,3.2495,3.2511,3.251,3.2532,3.2536,3.2536,3.2554,3.2551,3.2572,3.257,3.2604,3.2599,3.2601,3.26,3.2623,3.2621,3.2701,3.2712,3.2641,3.2642,3.2642,0,3.2474,3.2492,3.2499,3.2509,3.2513,3.253,3.254,3.2534,3.2544,3.2556,3.257,3.2588,3.2601,3.2632,3.2634,3.265,3.2645,3.2672,3.2647,3.2649,3.2645,3.2643,3.2645,3.2677,3.2678,3.2678,3.2679,0,3.2535,3.2532,3.2546,3.256,3.2572,3.2583,3.2592,3.2602,3.2596,3.2609,3.2628,3.2639,3.266,3.2678,3.2693,3.2698,3.2688,3.2687,3.2693,3.2695,3.2695,3.2694,3.2614,3.2685,3.2684,3.2684,3.2683,3.2683,3.2579,3.2594,3.2601,3.2618,3.2624,3.2634,3.2649,3.2651,3.2666,3.2682,3.2678,3.27,3.2709,3.2728,3.2735,3.2752,3.2742,3.2751,3.2753,3.2755,3.2758,3.2693,3.2755,3.2755,3.2754,3.2754,3.2754,0,3.2638,3.2642,3.2657,3.2671,3.2684,3.2674,3.2684,3.2696,3.2715,3.2724,3.2737,3.276,3.2777,3.2781,3.2798,3.2811,3.2807,3.2815,3.2814,3.2815,3.2766,3.2758,3.2818,3.2818,3.2818,3.2818,3.2818,3.2818,3.267,3.2696,3.2695,3.2725,3.2729,3.2749,3.2756,3.2765,3.2772,3.2797,3.2812,3.2814,3.2821,3.2839,3.2855,3.2855,3.2862,3.2872,3.2871,3.2825,3.2818,3.2812,3.2805,3.2874,3.2874,3.2919,3.2919,3.2919]}]]